sat.trackr.live / text

‹ back to catalog

ONEWEB-0246

NORAD 48786 · 2021-045V

PAYLOAD ACTIVE UNKNOWN

§ Identity

Operator
Country
UK
Launch date
2021-05-28
Launch site
VOSTO
Launch vehicle
Mass (kg)
RCS (m²)

Purposes: comms

External: N2YO · Heavens-Above · Gunter

§ Orbital elements

Epoch: 2026-09-20T04:09:09.037728Z

Period
109.46 min
Inclination
87.8996°
Eccentricity
0.0002054
Mean motion
13.15547763 rev/d
Perigee alt
1,200.2 km
Apogee alt
1,203.3 km
Semi-major
7,579.9 km
B*
3.0984e-4
RAAN
240.2546°
Arg perigee
81.4596°
Mean anomaly
278.6766°
Rev number
25,676

§ Raw data

ONEWEB-02461 48786U 21045V   26263.17302127  .00000129  00000+0  30984-3 0  99952 48786  87.8996 240.2546 0002054  81.4596 278.6766 13.15547763256769

JSON: /api/v1/satellites/48786 · /tle

For live sub-satellite position, see the globe view (requires WebGL).

§ Visibility from observer

Set your observer location to see the next 7 days of passes ≥ 10°. The values pass through the URL so the page stays shareable.

No JS? Fill the form by hand. The geolocation button needs JavaScript.